Location: Pian di Sc�
(43.6333°N, 11.5500°E)
Time: 18:18:41
(UTC+00:00)

Cosmos 1980 - Pass Details

Date: 07 August 2020
Orbit: 838 x 848 km, 71.0° (Epoch: 17 September)

Event Time Altitude Azimuth Distance (km) Brightness Sun altitude
Rises 00:40:58 0° 334° (NNW) 3,413 7.4 -27.2°
Reaches altitude 10° 00:43:25 10° 335° (NNW) 2,475 6.6 -27.0°
Maximum altitude 00:49:07 88° 245° (WSW) 853 3.6 -26.6°
Enters shadow 00:49:35 76° 163° (SSE) 874 3.5 -26.6°
